METEOR 2-6 DEB, 45502

Orbit data source: Space-Track

METEOR 2-6 DEB, 45502 is space debris in LEO originally from a launch on Tue, 09 Sep 1980 UTC launched from the Plesetsk Missile And Space Complex (PKMTR). Debris objects in space refer to the collection of defunct objects orbiting the Earth. Examples of debris include non-operational satellites, rocket bodies, and fragments generated from explosions, collisions, or faulty payload assembly.

Loading next visibility...
Identifier
45502, 1980-073W
Orbit
LEO
Country
Flag of CISCIS
Related business
Manufacturer
Unknown
Mission
Spacecraft
Bus & Motor
Unknown
Mass
Unknown
Launch date (UTC)
1980-09-09 (45 years ago)
Launch vehicle
Unknown
Launch site
Plesetsk Missile And Space Complex (PKMTR)
Object type
Payload
Rocket body
Debris
Shape & HBR
Unknown shape, 0.1 m
Radar Cross Section
Small (<0.1 m²)

Expand to show TLE details & history
Last TLE update: 11 hours ago

TLE from 11 hours ago
0 METEOR 2-6 DEB
1 45502U 80073W   25351.86511532  .00002410  00000-0  82161-3 0  9999
2 45502  81.2219 216.5290 0037768 120.5770 239.9150 14.35816337574634
Epoch: 2025-12-17T20:45Z
TLE epoch observation values (Epoch: 2025-12-17T20:45:45.963Z)
Latitude
-0.00003°
Longitude
178.35864°
Altitude
788.905 km
Speed
7.452 km/s
True Right ascension
14h 26m 06s
True Declination
0° 00' 00"
Sunlit
Object was in daylight at epoch
Visualization orbit readout
Latitude
Unknown
Longitude
Unknown
Altitude
Unknown
Speed
Unknown
Apparent Right ascension
Unknown
Apparent Declination
Unknown
Sunlit
N/A
Visualization observer readout
Local Sidereal Time
06:24:26
Azimuth
Unknown
Elevation
Unknown
Doppler factor
Unknown
Orbital elements
Apogee altitude
796.491 km
Perigee altitude
742.5 km
Semi-major axis
7,147.633 km
Eccentricity
0.00378
Inclination
81.2219°
RAAN
216.529°
Arg. of periapsis
120.577°
True anomaly
239.5414°
Mean anomaly
239.915°
Eccentric anomaly
239.72811°
Mean motion
3.5917 °/min
Orbital period
100.23 mins
BSTAR
0.00082161
Loading maneuver chart data...
Computing Atmospheric mass density...
Loading historical data...
Loading historical data...
Loading historical data...
Loading historical data...
Loading historical data...
Loading historical data...
Loading historical data...

Documentation

Showing up to 5 results
|